Location: Brno
(49.2000°N, 16.6330°E)
Time: 10:21:03
(UTC+02:00)

Daily predictions for brighter satellites

Satellite Brightness Start Highest point End
(mag) Time Altitude Azimuth Time Altitude Azimuth Time Altitude Azimuth
Cosmos 1624 Rocket 4.0 21:07:04 10° SSW 21:12:20 79° ESE 21:17:42 10° NNE
SL-27 R/B 3.3 21:11:28 10° NNW 21:15:04 51° WSW 21:18:34 10° S
Cosmos 1833 Rocket 4.0 21:10:47 10° NNW 21:15:34 27° NE 21:20:20 10° ESE
H-2A R/B 2.1 21:11:58 10° SSE 21:16:17 87° ENE 21:20:31 10° NNW
Cosmos 2278 Rocket 3.0 21:14:16 10° SSE 21:19:07 30° ESE 21:23:59 10° NE
Cosmos 1844 4.0 21:17:34 10° S 21:23:03 47° ESE 21:28:35 10° NE
Cosmos 1461 4.2 21:19:18 10° WSW 21:23:49 50° NW 21:28:11 10° NNE
Cosmos 407 Rocket 3.8 21:18:38 10° NNW 21:23:52 69° WSW 21:29:08 10° SSE
ISS -1.4 21:23:07 10° SSE 21:24:24 12° SE 21:25:41 10° ESE
Cosmos 1844 Rocket 2.7 21:19:48 10° SSW 21:25:22 63° ESE 21:30:57 10° NNE
H-2A R/B 3.4 21:21:50 10° ESE 21:26:13 26° ENE 21:30:32 10° N
COSMOS 2487 2.7 21:23:18 10° NNW 21:26:54 60° ENE 21:30:28 10° SSE
ERS-1 Rocket 3.9 21:26:15 10° S 21:31:08 49° W 21:36:03 10° NNW
Cosmos 1140 Rocket 3.6 21:28:17 10° NNW 21:33:24 62° ENE 21:38:31 10° SE
Cosmos 2082 Rocket 3.0 21:28:55 10° NNW 21:34:21 41° NE 21:39:42 10° ESE
MetOp-A 4.2 21:29:21 10° SSE 21:34:41 80° ENE 21:40:04 10° NNW
Cosmos 2341 Rocket 4.2 21:29:24 10° S 21:35:32 57° E 21:41:39 10° NNE
DNEPR-1 R/B 4.1 21:30:10 10° NW 21:36:01 73° NE 21:40:37 11° SE
Cosmos 1452 Rocket 3.7 21:31:17 10° S 21:36:23 53° ESE 21:41:32 10° NNE
Elektron 3 3.8 21:34:38 10° NW 21:37:29 79° SW 21:40:49 11° SE
CENTAUR R/B 4.5 21:32:38 10° NW 21:39:22 32° WSW 21:46:26 10° S
Okean 2 Rocket 3.6 21:37:05 10° SSE 21:41:13 40° E 21:45:21 10° NNE
SPOT 1/Viking Rocket 3.7 21:36:07 10° SSE 21:41:14 64° ENE 21:46:25 10° N
Cosmos 2263 Rocket 4.3 21:36:52 10° WSW 21:41:53 32° NW 21:46:54 10° NNE
Timation 2 Rocket 3.9 21:37:55 10° NNW 21:43:59 73° ENE 21:49:36 12° SE
CZ-4B R/B 3.9 21:42:24 10° NNE 21:47:08 41° E 21:51:42 10° SSE
Gbstr 26 Del rocket 3.7 21:43:23 10° WNW 21:48:56 67° N 21:53:23 10° E
BREEZE-M TANK 4.0 21:30:34 10° WSW 21:49:08 67° S 21:53:19 10° E
Sich 1 Rocket 4.0 21:44:36 10° SSW 21:49:10 71° W 21:53:46 10° N
Cosmos 1825 2.1 21:46:45 10° S 21:50:32 73° E 21:54:22 10° NNE
Meteor 1-27 Rocket 4.2 21:46:55 10° NNW 21:52:26 61° W 21:57:51 10° S
YAOGAN 6 2.6 21:48:59 10° S 21:52:29 80° WSW 21:56:02 10° NNW
Okean 3 3.6 21:48:26 10° NNW 21:52:45 82° W 21:57:01 10° S
Cosmos 1408 2.5 21:50:29 10° S 21:54:09 79° E 21:57:48 10° NNE
SL-8 Rocket 4.3 21:48:13 10° SSE 21:54:11 48° E 22:00:08 10° NNE
Cosmos 962 Rocket 4.5 21:48:17 10° S 21:54:25 76° E 22:00:41 10° NNE
USA 229 DEB 4.0 21:49:33 10° NW 21:56:38 67° NE 22:03:06 13° SE
USA 229 4.0 21:49:39 10° NW 21:56:43 66° NE 22:03:12 13° SE
Cosmos 1242 Rocket 2.5 21:53:31 10° N 21:57:11 76° ENE 22:00:20 14° SSE
Cosmos 1782 Rocket 3.6 21:54:06 10° S 21:58:31 72° E 22:03:01 10° NNE
NOSS 2-2 (D) 4.3 21:56:24 10° SW 22:00:40 62° NW 22:05:54 10° NE
Intercosmos 25 3.2 21:58:56 11° S 22:02:13 48° E 22:05:18 10° NNE
NOAA 11 4.2 21:57:46 11° SSE 22:03:04 82° ENE 22:08:37 10° NNW
Cosmos 1862 3.6 21:59:08 10° SSW 22:03:12 72° W 22:07:18 10° N
Cosmos 2154 Rocket 4.2 21:57:50 10° SSW 22:04:04 76° W 22:10:18 10° N
Cosmos 1850 Rocket 4.0 21:59:50 10° NNW 22:05:12 84° ENE 22:09:40 15° SSE
Cosmos 1812 4.1 22:02:13 10° NNE 22:05:28 25° ENE 22:07:38 16° ESE
Cosmos 1975 Rocket 3.3 22:05:33 10° NNW 22:09:51 66° W 22:14:09 10° S
CARTOSAT-1 4.0 22:13:08 18° SE 22:16:04 49° ENE 22:20:14 10° N
Cosmos 1295 Rocket 4.5 22:10:08 10° S 22:16:26 80° E 22:22:43 10° N
Landsat 7 3.8 22:17:13 17° SSE 22:20:50 75° ENE 22:25:36 10° N
Cosmos 1536 Rocket 3.8 22:18:13 10° N 22:22:40 59° ENE 22:25:33 21° SSE
Cosmos 1741 Rocket 4.2 22:19:32 10° NNW 22:24:46 71° WSW 22:28:45 17° S
AVUM R/B 4.0 22:22:23 10° NNW 22:25:48 46° NE 22:27:39 23° ESE
CZ-4C R/B 3.3 22:23:16 21° SSE 22:25:51 79° ENE 22:29:59 10° NNW
Cosmos 1238 Rocket 4.4 22:25:33 10° NW 22:28:09 24° W 22:31:02 10° SSW
Cosmos 1184 Rocket 3.9 22:26:35 10° SSW 22:29:49 45° WNW 22:33:04 10° N
SAR-Lupe-2 4.4 22:28:32 23° ESE 22:30:13 38° ENE 22:33:34 10° N
Cosmos 2366 rocket 4.0 22:28:18 14° S 22:33:49 68° E 22:40:08 10° NNE
Cosmos 2084 3.1 22:30:49 10° SW 22:34:39 88° NW 22:38:32 10° NE
ATLAS 2AS CENTAUR R/B 4.5 22:27:47 10° NW 22:35:07 34° NNE 22:42:18 10° E
Terra 1.8 22:33:30 22° SSE 22:36:34 76° ENE 22:41:22 10° N
ARGOS 3.9 22:37:51 12° S 22:42:37 48° W 22:47:49 10° NNW
Spot 4 4.0 22:39:54 24° SSE 22:42:50 67° ENE 22:47:40 10° N
SL-8 R/B 3.6 22:38:39 10° WSW 22:43:29 80° S 22:48:18 10° E
NOSS 3-1 (C) 4.3 22:38:39 10° NW 22:45:50 60° NE 22:52:27 16° ESE
Meteor 1-25 Rocket 4.4 22:42:36 19° S 22:46:48 62° E 22:52:33 10° NNE
Cosmos 2151 Rocket 3.6 22:43:34 18° S 22:46:52 84° E 22:51:26 10° N
APEX 3.6 22:42:55 10° SSW 22:46:58 80° ESE 22:52:23 10° NNE
ASTEX 1 3.7 22:46:40 10° NNE 22:51:29 49° E 22:53:53 27° SSE
Lacrosse 5 4.0 22:54:07 11° E 22:54:07 11° E 22:54:28 10° E
Meteor 1-18 Rocket 4.4 22:48:52 10° NNW 22:54:46 76° W 22:58:49 21° S
USA 234 3.5 22:51:41 10° ENE 22:57:57 46° SE 23:04:10 10° SSW
BREEZE-M DEB (TANK) 4.3 22:49:49 10° WNW 22:58:13 27° WSW 23:00:23 19° SSW
Cosmos 2218 Rocket 4.2 22:53:17 10° SSW 22:59:41 73° W 23:06:07 10° N
Cosmos 1833 Rocket 2.8 22:54:24 10° NNW 22:59:59 66° WSW 23:03:12 26° S
ISS -3.4 22:57:04 10° SW 23:00:16 57° SSE 23:03:29 10° ENE
Okean 1 3.3 22:57:55 10° N 23:02:01 84° E 23:03:40 35° SSE
Cosmos 2278 Rocket 3.0 22:57:24 10° SW 23:02:56 53° NW 23:08:31 10° NNE
H-2A R/B 2.6 23:01:42 20° S 23:05:19 57° W 23:10:34 10° NNW
ALOS 2 4.4 23:03:20 15° E 23:05:23 21° ENE 23:08:40 10° NNE
Cosmos 1025 Rocket 4.0 23:02:02 10° N 23:06:07 36° ENE 23:07:42 27° ESE
Cosmos 1486 Rocket 4.1 23:01:13 10° NNW 23:06:34 69° ENE 23:09:16 30° SE
Cosmos 1727 Rocket 4.3 23:05:03 10° NNW 23:11:07 61° W 23:15:27 20° SSW
Cosmos 1300 Rocket 3.6 23:11:12 34° S 23:13:02 69° E 23:17:29 10° NNE
Meteor 1-13 Rocket 4.4 23:07:21 10° N 23:13:17 74° ENE 23:16:25 30° SSE
Okean 1 Rocket 3.2 23:11:46 35° SSE 23:13:28 60° E 23:17:52 10° NNE
Okean 1-7 Rocket 3.5 23:09:17 10° N 23:13:50 80° E 23:15:37 36° SSE
Spot 2 4.0 23:10:25 10° NNE 23:14:50 68° ESE 23:16:28 36° S
IGS 5A 4.1 23:13:56 26° SSW 23:15:55 48° W 23:19:59 10° NNW
CZ-4B R/B 3.7 23:16:04 12° ENE 23:16:42 13° ENE 23:18:15 10° NNE
Cosmos 2082 Rocket 3.1 23:13:09 10° NW 23:18:26 40° WSW 23:21:34 22° SSW
Meteor 2-4 Rocket 4.2 23:13:56 10° N 23:19:08 45° ENE 23:21:38 28° SE
Meteor 1-11 Rocket 3.9 23:27:31 32° SSE 23:30:07 58° E 23:35:46 10° NNE
NOSS 8 (F) 4.4 23:31:04 49° SSW 23:31:56 76° SE 23:35:51 10° NE
Cosmos 1633 3.5 23:32:10 34° E 23:32:17 34° E 23:35:41 10° NNE
Cosmos 2098 4.3 23:34:38 64° S 23:35:06 82° E 23:39:03 10° N
Okean 2 4.3 23:31:25 10° N 23:35:18 37° ENE 23:36:19 32° ESE
Cosmos 1356 3.7 23:35:43 50° ESE 23:35:49 51° E 23:39:16 10° NNE
Gbstr 26 Del rocket 3.0 23:31:06 10° WNW 23:35:57 61° SSW 23:36:52 47° SSE
Cosmos 2297 4.4 23:30:56 10° SW 23:36:32 55° NW 23:42:12 10° NNE
Timation 1 Rocket 4.3 23:32:42 20° SSW 23:36:58 83° ESE 23:43:00 10° NNE
Cosmos 1544 Rocket 4.5 23:37:54 30° ESE 23:38:29 31° E 23:42:19 10° NNE
Cosmos 1602 3.7 23:39:07 55° SSE 23:39:44 67° E 23:43:38 10° NNE
Cosmos 1812 4.2 23:37:58 10° NNW 23:41:22 29° W 23:42:49 23° SW
Cosmos 1302 Rocket 4.1 23:40:16 38° SSE 23:42:02 58° ESE 23:47:15 10° NNE
Cosmos 1315 Rocket 3.6 23:44:06 34° E 23:44:15 34° E 23:47:49 10° NNE
IKONOS-2 4.4 23:44:24 48° S 23:45:33 85° W 23:49:50 10° NNW
Lacrosse 5 rocket 3.1 23:50:18 17° E 23:50:18 17° E 23:51:27 10° ENE
Cosmos 1821 Rocket 3.9 23:48:05 33° S 23:51:07 80° E 23:57:22 10° NNE
Cosmos 1605 Rocket 4.4 23:49:12 33° SE 23:51:47 51° E 23:57:57 10° NNE
